TimePDT,TemperatureF,Dew PointF,Humidity,Sea Level PressureIn,VisibilityMPH,Wind Direction,Wind SpeedMPH,Gust SpeedMPH,PrecipitationIn,Events,Conditions,WindDirDegrees,DateUTC
12:56 AM,75.0,44.1,33,29.68,10.0,NW,11.5,-,N/A,,Clear,320,2013-06-24 07:56:00
1:56 AM,73.0,44.1,35,29.68,10.0,WNW,6.9,-,N/A,,Clear,300,2013-06-24 08:56:00
2:56 AM,72.0,44.1,37,29.68,10.0,WNW,6.9,-,N/A,,Clear,300,2013-06-24 09:56:00
3:56 AM,72.0,42.1,34,29.70,10.0,NW,10.4,-,N/A,,Clear,310,2013-06-24 10:56:00
4:56 AM,70.0,42.1,36,29.71,10.0,WNW,11.5,-,N/A,,Clear,300,2013-06-24 11:56:00
5:56 AM,69.1,43.0,39,29.74,10.0,WNW,11.5,-,N/A,,Clear,300,2013-06-24 12:56:00
6:56 AM,71.1,44.1,38,29.75,10.0,WNW,11.5,-,N/A,,Clear,300,2013-06-24 13:56:00
7:56 AM,73.9,44.1,34,29.77,10.0,NW,11.5,-,N/A,,Scattered Clouds,310,2013-06-24 14:56:00
8:56 AM,77.0,44.1,31,29.78,10.0,WNW,10.4,-,N/A,,Scattered Clouds,300,2013-06-24 15:56:00
9:56 AM,81.0,41.0,24,29.78,10.0,WNW,9.2,-,N/A,,Scattered Clouds,300,2013-06-24 16:56:00
10:56 AM,84.0,39.0,20,29.78,10.0,North,3.5,-,N/A,,Scattered Clouds,10,2013-06-24 17:56:00
11:56 AM,87.1,37.9,18,29.77,10.0,North,5.8,-,N/A,,Scattered Clouds,350,2013-06-24 18:56:00
12:24 PM,87.8,35.6,16,29.87,10.0,SW,16.1,-,N/A,,Clear,220,2013-06-24 19:24:00
12:56 PM,90.0,37.9,16,29.74,10.0,SSW,11.5,23.0,N/A,,Scattered Clouds,210,2013-06-24 19:56:00
1:56 PM,89.1,36.0,15,29.75,10.0,NNW,10.4,-,N/A,,Scattered Clouds,330,2013-06-24 20:56:00
2:56 PM,89.1,39.9,18,29.74,10.0,West,10.4,17.3,N/A,,Scattered Clouds,270,2013-06-24 21:56:00
3:56 PM,91.0,43.0,19,29.73,10.0,WSW,10.4,18.4,N/A,,Scattered Clouds,240,2013-06-24 22:56:00
4:56 PM,91.0,43.0,19,29.72,10.0,SW,8.1,-,N/A,,Clear,220,2013-06-24 23:56:00
5:56 PM,90.0,45.0,21,29.72,10.0,WSW,11.5,-,N/A,,Clear,240,2013-06-25 00:56:00
6:00 PM,-9999,-9999,N/A,-9999,-9999.0,North,-9999.0,-,N/A,,Unknown,0,2013-06-25 01:00:00
6:36 PM,89.6,46.4,22,29.83,10.0,WNW,13.8,-,N/A,,Clear,290,2013-06-25 01:36:00
6:56 PM,88.0,46.0,23,29.73,10.0,WNW,16.1,20.7,N/A,,Clear,290,2013-06-25 01:56:00
7:56 PM,82.9,48.0,29,29.75,10.0,WNW,23.0,-,N/A,,Clear,290,2013-06-25 02:56:00
8:56 PM,80.1,48.9,34,29.77,10.0,WNW,17.3,-,N/A,,Clear,290,2013-06-25 03:56:00
9:56 PM,78.1,48.9,36,29.80,10.0,NNW,9.2,-,N/A,,Clear,330,2013-06-25 04:56:00
10:56 PM,77.0,50.0,39,29.81,10.0,North,10.4,-,N/A,,Clear,360,2013-06-25 05:56:00
11:56 PM,75.9,51.1,42,29.81,10.0,NNW,12.7,-,N/A,,Clear,330,2013-06-25 06:56:00